Time,TemperatureF,DewpointF,PressureIn,WindDirection,WindDirectionDegrees,WindSpeedMPH,WindSpeedGustMPH,Humidity,HourlyPrecipIn,Conditions,Clouds,dailyrainin,SoftwareType,DateUTC
2014-03-07 00:01:00,22.6,14.9,30.17,NNW,337,0.0,0.0,72,0.00,,,0.00,WUHU21636XXSP,2014-03-07 05:01:00,
2014-03-07 00:02:00,22.6,14.9,30.17,NNW,337,0.0,0.0,72,0.00,,,0.00,WUHU21636XXSP,2014-03-07 05:02:00,
2014-03-07 00:07:00,22.6,14.9,30.17,NNW,337,0.0,0.0,72,0.00,,,0.00,WUHU21636XXSP,2014-03-07 05:07:00,
2014-03-07 00:12:00,22.6,14.9,30.17,NNW,337,0.0,0.0,72,0.00,,,0.00,WUHU21636XXSP,2014-03-07 05:12:00,
2014-03-07 00:17:00,22.6,14.9,30.17,NNW,337,0.0,0.0,72,0.00,,,0.00,WUHU21636XXSP,2014-03-07 05:17:00,
2014-03-07 00:22:00,22.6,14.9,30.16,NNW,337,0.0,0.0,72,0.00,,,0.00,WUHU21636XXSP,2014-03-07 05:22:00,
2014-03-07 00:27:00,22.6,14.9,30.15,NNW,337,0.0,0.0,72,0.00,,,0.00,WUHU21636XXSP,2014-03-07 05:27:00,
2014-03-07 00:32:00,22.5,14.7,30.15,NNW,337,0.0,0.0,72,0.00,,,0.00,WUHU21636XXSP,2014-03-07 05:32:00,
2014-03-07 00:37:00,22.6,14.9,30.15,NNW,337,0.0,0.0,72,0.00,,,0.00,WUHU21636XXSP,2014-03-07 05:37:00,
2014-03-07 00:42:00,22.6,14.9,30.14,NNW,337,0.0,0.0,72,0.00,,,0.00,WUHU21636XXSP,2014-03-07 05:42:00,
2014-03-07 00:47:00,22.6,14.9,30.14,NNW,337,0.0,0.0,72,0.00,,,0.00,WUHU21636XXSP,2014-03-07 05:47:00,
2014-03-07 00:52:00,22.8,15.4,30.14,NNW,337,0.0,0.0,72,0.00,,,0.00,WUHU21636XXSP,2014-03-07 05:52:00,
2014-03-07 00:57:00,22.8,15.4,30.14,NNW,337,0.0,0.0,72,0.00,,,0.00,WUHU21636XXSP,2014-03-07 05:57:00,
2014-03-07 01:02:00,23.2,15.8,30.14,NNW,337,0.0,0.0,73,0.00,,,0.00,WUHU21636XXSP,2014-03-07 06:02:00,
2014-03-07 01:07:00,23.2,15.8,30.14,NNW,337,0.0,0.0,73,0.00,,,0.00,WUHU21636XXSP,2014-03-07 06:07:00,
2014-03-07 01:12:00,23.2,15.8,30.14,NNW,337,0.0,0.0,73,0.00,,,0.00,WUHU21636XXSP,2014-03-07 06:12:00,
2014-03-07 01:17:00,23.4,15.8,30.14,NNW,337,0.0,0.0,73,0.00,,,0.00,WUHU21636XXSP,2014-03-07 06:17:00,
2014-03-07 01:22:00,23.5,16.3,30.14,NNW,337,0.0,0.0,74,0.00,,,0.00,WUHU21636XXSP,2014-03-07 06:22:00,
2014-03-07 01:27:00,23.5,16.3,30.13,NNW,337,0.0,0.0,74,0.00,,,0.00,WUHU21636XXSP,2014-03-07 06:27:00,
2014-03-07 01:32:00,23.5,16.3,30.12,NNW,337,0.0,0.0,74,0.00,,,0.00,WUHU21636XXSP,2014-03-07 06:32:00,
2014-03-07 01:37:00,23.5,16.3,30.12,NNW,337,0.0,0.0,74,0.00,,,0.00,WUHU21636XXSP,2014-03-07 06:37:00,
2014-03-07 01:42:00,23.5,16.3,30.11,NNW,337,0.0,0.0,74,0.00,,,0.00,WUHU21636XXSP,2014-03-07 06:42:00,
2014-03-07 01:47:00,23.5,16.3,30.10,NNW,337,0.0,0.0,74,0.00,,,0.00,WUHU21636XXSP,2014-03-07 06:47:00,
2014-03-07 01:52:00,23.5,16.3,30.10,NNW,337,0.0,0.0,75,0.00,,,0.00,WUHU21636XXSP,2014-03-07 06:52:00,
2014-03-07 01:57:00,23.5,16.3,30.10,NNW,337,0.0,0.0,75,0.00,,,0.00,WUHU21636XXSP,2014-03-07 06:57:00,
2014-03-07 02:02:00,23.4,16.5,30.10,NNW,337,0.0,0.0,75,0.00,,,0.00,WUHU21636XXSP,2014-03-07 07:02:00,
2014-03-07 02:07:00,23.4,16.5,30.10,NNW,337,0.0,0.0,76,0.00,,,0.00,WUHU21636XXSP,2014-03-07 07:07:00,
2014-03-07 02:12:00,23.2,16.7,30.10,NNW,337,0.0,0.0,76,0.00,,,0.00,WUHU21636XXSP,2014-03-07 07:12:00,
2014-03-07 02:17:00,23.2,16.7,30.10,NNW,337,0.0,0.0,76,0.00,,,0.00,WUHU21636XXSP,2014-03-07 07:17:00,
2014-03-07 02:22:00,22.8,16.3,30.09,NNW,337,0.0,0.0,76,0.00,,,0.00,WUHU21636XXSP,2014-03-07 07:22:00,
2014-03-07 02:27:00,22.8,16.3,30.09,NNW,337,0.0,0.0,76,0.00,,,0.00,WUHU21636XXSP,2014-03-07 07:27:00,
2014-03-07 02:32:00,22.6,16.2,30.09,NNW,337,0.0,0.0,76,0.00,,,0.00,WUHU21636XXSP,2014-03-07 07:32:00,
2014-03-07 02:37:00,22.6,16.2,30.09,NNW,337,0.0,0.0,76,0.00,,,0.00,WUHU21636XXSP,2014-03-07 07:37:00,
2014-03-07 02:42:00,22.6,16.2,30.09,NNW,337,0.0,0.0,77,0.00,,,0.00,WUHU21636XXSP,2014-03-07 07:42:00,
2014-03-07 02:47:00,22.6,16.2,30.08,NNW,337,0.0,0.0,76,0.00,,,0.00,WUHU21636XXSP,2014-03-07 07:47:00,
2014-03-07 02:52:00,22.6,16.2,30.08,NNW,337,0.0,0.0,77,0.00,,,0.00,WUHU21636XXSP,2014-03-07 07:52:00,
2014-03-07 02:57:00,22.6,16.2,30.09,NNW,337,0.0,0.0,77,0.00,,,0.00,WUHU21636XXSP,2014-03-07 07:57:00,
2014-03-07 03:02:00,22.6,16.2,30.08,NNW,337,0.0,0.0,77,0.00,,,0.00,WUHU21636XXSP,2014-03-07 08:02:00,
2014-03-07 03:07:00,22.6,16.2,30.08,NNW,337,0.0,0.0,77,0.00,,,0.00,WUHU21636XXSP,2014-03-07 08:07:00,
2014-03-07 03:12:00,22.6,16.2,30.08,NNW,337,0.0,0.0,77,0.00,,,0.00,WUHU21636XXSP,2014-03-07 08:12:00,
2014-03-07 03:17:00,22.6,16.2,30.08,NNW,337,0.0,0.0,77,0.00,,,0.00,WUHU21636XXSP,2014-03-07 08:17:00,
2014-03-07 03:22:00,22.6,16.2,30.08,NNW,337,0.0,0.0,78,0.00,,,0.00,WUHU21636XXSP,2014-03-07 08:22:00,
2014-03-07 03:27:00,22.6,16.2,30.08,NNW,337,0.0,0.0,78,0.00,,,0.00,WUHU21636XXSP,2014-03-07 08:27:00,
2014-03-07 03:32:00,22.6,16.2,30.08,NNW,337,0.0,0.0,78,0.00,,,0.00,WUHU21636XXSP,2014-03-07 08:32:00,
2014-03-07 03:37:00,22.6,16.2,30.08,NNW,337,0.0,0.0,78,0.00,,,0.00,WUHU21636XXSP,2014-03-07 08:37:00,
2014-03-07 03:42:00,22.6,16.2,30.08,NNW,337,0.0,0.0,78,0.00,,,0.00,WUHU21636XXSP,2014-03-07 08:42:00,
2014-03-07 03:47:00,22.6,16.2,30.07,NNW,337,0.0,0.0,78,0.00,,,0.00,WUHU21636XXSP,2014-03-07 08:47:00,
2014-03-07 03:52:00,22.6,16.2,30.07,NNW,337,0.0,0.0,78,0.00,,,0.00,WUHU21636XXSP,2014-03-07 08:52:00,
2014-03-07 03:57:00,22.6,16.2,30.06,NNW,337,0.0,0.0,78,0.00,,,0.00,WUHU21636XXSP,2014-03-07 08:57:00,
2014-03-07 04:02:00,22.6,16.2,30.07,NNW,337,0.0,0.0,78,0.00,,,0.00,WUHU21636XXSP,2014-03-07 09:02:00,
2014-03-07 04:07:00,22.6,16.2,30.06,NNW,337,0.0,0.0,78,0.00,,,0.00,WUHU21636XXSP,2014-03-07 09:07:00,
2014-03-07 04:12:00,22.6,16.2,30.05,ENE,67,0.0,0.0,78,0.00,,,0.00,WUHU21636XXSP,2014-03-07 09:12:00,
2014-03-07 04:17:00,22.6,16.2,30.05,ENE,67,0.0,0.0,78,0.00,,,0.00,WUHU21636XXSP,2014-03-07 09:17:00,
2014-03-07 04:22:00,22.6,16.2,30.05,NNW,337,0.0,0.0,78,0.00,,,0.00,WUHU21636XXSP,2014-03-07 09:22:00,
2014-03-07 04:27:00,22.6,16.2,30.05,NNW,337,0.0,0.0,78,0.00,,,0.00,WUHU21636XXSP,2014-03-07 09:27:00,
2014-03-07 04:32:00,22.6,16.2,30.05,ESE,112,0.0,0.0,78,0.00,,,0.00,WUHU21636XXSP,2014-03-07 09:32:00,
2014-03-07 04:37:00,22.6,16.2,30.05,ESE,112,0.0,0.0,78,0.00,,,0.00,WUHU21636XXSP,2014-03-07 09:37:00,
2014-03-07 04:42:00,22.6,16.2,30.05,NE,45,0.0,0.0,78,0.00,,,0.00,WUHU21636XXSP,2014-03-07 09:42:00,
2014-03-07 04:47:00,22.6,16.2,30.05,NE,45,0.0,0.0,78,0.00,,,0.00,WUHU21636XXSP,2014-03-07 09:47:00,
2014-03-07 04:52:00,22.6,16.2,30.05,ENE,67,0.0,0.0,78,0.00,,,0.00,WUHU21636XXSP,2014-03-07 09:52:00,
2014-03-07 04:57:00,22.8,16.9,30.05,ENE,67,0.0,0.0,78,0.00,,,0.00,WUHU21636XXSP,2014-03-07 09:57:00,
2014-03-07 05:02:00,22.8,16.9,30.05,ENE,67,0.0,0.0,78,0.00,,,0.00,WUHU21636XXSP,2014-03-07 10:02:00,
2014-03-07 05:07:00,22.8,16.9,30.05,NE,45,0.0,0.0,78,0.00,,,0.00,WUHU21636XXSP,2014-03-07 10:07:00,
2014-03-07 05:12:00,22.8,16.9,30.04,ENE,67,2.9,2.9,77,0.00,,,0.00,WUHU21636XXSP,2014-03-07 10:12:00,
2014-03-07 05:17:00,23.0,16.7,30.04,NNE,22,0.0,2.9,77,0.00,,,0.00,WUHU21636XXSP,2014-03-07 10:17:00,
2014-03-07 05:22:00,23.0,16.7,30.04,NNE,22,0.0,2.9,77,0.00,,,0.00,WUHU21636XXSP,2014-03-07 10:22:00,
2014-03-07 05:27:00,22.8,16.5,30.04,NNE,22,0.0,0.0,77,0.00,,,0.00,WUHU21636XXSP,2014-03-07 10:27:00,
2014-03-07 05:32:00,22.8,16.5,30.04,NNE,22,0.0,0.0,77,0.00,,,0.00,WUHU21636XXSP,2014-03-07 10:32:00,
2014-03-07 05:37:00,22.8,16.5,30.05,SSE,157,0.0,0.0,78,0.00,,,0.00,WUHU21636XXSP,2014-03-07 10:37:00,
2014-03-07 05:42:00,23.0,16.7,30.04,NE,45,0.0,0.0,77,0.00,,,0.00,WUHU21636XXSP,2014-03-07 10:42:00,
2014-03-07 05:47:00,23.2,16.9,30.04,NNE,22,0.0,0.0,77,0.00,,,0.00,WUHU21636XXSP,2014-03-07 10:47:00,
2014-03-07 05:52:00,23.2,16.9,30.04,NNE,22,0.0,0.0,77,0.00,,,0.00,WUHU21636XXSP,2014-03-07 10:52:00,
2014-03-07 05:57:00,23.2,16.9,30.04,NNE,22,0.0,0.0,77,0.00,,,0.00,WUHU21636XXSP,2014-03-07 10:57:00,
2014-03-07 06:02:00,23.2,16.9,30.04,NE,45,0.0,0.0,77,0.00,,,0.00,WUHU21636XXSP,2014-03-07 11:02:00,
2014-03-07 06:07:00,23.2,16.9,30.04,NE,45,0.0,0.0,77,0.00,,,0.00,WUHU21636XXSP,2014-03-07 11:07:00,
2014-03-07 06:12:00,23.2,16.9,30.04,ENE,67,0.0,0.0,77,0.00,,,0.00,WUHU21636XXSP,2014-03-07 11:12:00,
2014-03-07 06:17:00,23.2,16.9,30.03,NE,45,0.0,0.0,77,0.00,,,0.00,WUHU21636XXSP,2014-03-07 11:17:00,
2014-03-07 06:22:00,23.2,16.9,30.03,NE,45,3.3,3.3,77,0.00,,,0.00,WUHU21636XXSP,2014-03-07 11:22:00,
2014-03-07 06:27:00,23.2,16.9,30.03,NE,45,0.0,3.3,77,0.00,,,0.00,WUHU21636XXSP,2014-03-07 11:27:00,
2014-03-07 06:32:00,23.2,16.9,30.02,NE,45,0.0,0.0,77,0.00,,,0.00,WUHU21636XXSP,2014-03-07 11:32:00,
2014-03-07 06:37:00,23.2,16.9,30.02,NNE,22,0.0,0.0,77,0.00,,,0.00,WUHU21636XXSP,2014-03-07 11:37:00,
2014-03-07 06:42:00,23.2,16.9,30.02,NE,45,0.0,0.0,77,0.00,,,0.00,WUHU21636XXSP,2014-03-07 11:42:00,
2014-03-07 06:47:00,23.2,16.9,30.02,NE,45,0.0,0.0,77,0.00,,,0.00,WUHU21636XXSP,2014-03-07 11:47:00,
2014-03-07 06:52:00,23.2,16.9,30.01,East,90,0.0,0.0,77,0.00,,,0.00,WUHU21636XXSP,2014-03-07 11:52:00,
2014-03-07 06:57:00,23.4,17.1,30.01,ENE,67,0.0,0.0,77,0.00,,,0.00,WUHU21636XXSP,2014-03-07 11:57:00,
2014-03-07 07:02:00,23.5,17.2,30.01,ENE,67,0.0,0.0,77,0.00,,,0.00,WUHU21636XXSP,2014-03-07 12:02:00,
2014-03-07 07:07:00,23.5,17.2,30.01,ENE,67,0.0,0.0,77,0.00,,,0.00,WUHU21636XXSP,2014-03-07 12:07:00,
2014-03-07 07:12:00,23.7,17.4,30.01,SE,135,0.0,0.0,77,0.00,,,0.00,WUHU21636XXSP,2014-03-07 12:12:00,
2014-03-07 07:17:00,23.9,18.0,30.01,NNE,22,0.0,0.0,78,0.00,,,0.00,WUHU21636XXSP,2014-03-07 12:17:00,
2014-03-07 07:22:00,24.1,18.1,30.02,ENE,67,0.0,0.0,78,0.00,,,0.00,WUHU21636XXSP,2014-03-07 12:22:00,
2014-03-07 07:27:00,24.1,18.1,30.02,ENE,67,0.0,0.0,77,0.00,,,0.00,WUHU21636XXSP,2014-03-07 12:27:00,
2014-03-07 07:32:00,24.4,18.1,30.02,NE,45,0.0,0.0,77,0.00,,,0.00,WUHU21636XXSP,2014-03-07 12:32:00,
2014-03-07 07:37:00,24.4,18.1,30.02,NE,45,0.0,0.0,77,0.00,,,0.00,WUHU21636XXSP,2014-03-07 12:37:00,
2014-03-07 07:42:00,24.8,18.5,30.02,SE,135,0.0,0.0,77,0.00,,,0.00,WUHU21636XXSP,2014-03-07 12:42:00,
2014-03-07 07:47:00,25.0,18.7,30.02,North,0,0.0,0.0,77,0.00,,,0.00,WUHU21636XXSP,2014-03-07 12:47:00,
2014-03-07 07:52:00,25.3,19.0,30.02,North,0,0.0,0.0,77,0.00,,,0.00,WUHU21636XXSP,2014-03-07 12:52:00,
2014-03-07 07:57:00,25.5,19.2,30.02,North,0,0.0,0.0,77,0.00,,,0.00,WUHU21636XXSP,2014-03-07 12:57:00,
2014-03-07 08:02:00,25.9,19.6,30.01,North,0,0.0,0.0,77,0.00,,,0.00,WUHU21636XXSP,2014-03-07 13:02:00,
2014-03-07 08:07:00,26.2,19.9,30.00,North,0,0.0,0.0,77,0.00,,,0.00,WUHU21636XXSP,2014-03-07 13:07:00,
2014-03-07 08:12:00,26.4,19.8,30.00,NE,45,1.3,1.3,76,0.00,,,0.00,WUHU21636XXSP,2014-03-07 13:12:00,
2014-03-07 08:17:00,26.4,19.8,30.00,NNE,22,0.0,1.3,76,0.00,,,0.00,WUHU21636XXSP,2014-03-07 13:17:00,
2014-03-07 08:22:00,26.8,20.1,30.00,SSE,157,0.0,1.3,76,0.00,,,0.00,WUHU21636XXSP,2014-03-07 13:22:00,
2014-03-07 08:27:00,27.0,20.3,30.01,NE,45,1.5,1.5,76,0.00,,,0.00,WUHU21636XXSP,2014-03-07 13:27:00,
2014-03-07 08:32:00,27.1,20.5,30.00,NE,45,2.6,2.6,76,0.00,,,0.00,WUHU21636XXSP,2014-03-07 13:32:00,
2014-03-07 08:37:00,27.3,20.7,29.99,NW,315,0.0,2.6,76,0.00,,,0.00,WUHU21636XXSP,2014-03-07 13:37:00,
2014-03-07 08:42:00,27.5,20.8,29.99,NNW,337,0.0,0.0,76,0.00,,,0.00,WUHU21636XXSP,2014-03-07 13:42:00,
2014-03-07 08:47:00,27.9,21.2,29.99,NNW,337,0.0,0.0,76,0.00,,,0.00,WUHU21636XXSP,2014-03-07 13:47:00,
2014-03-07 08:52:00,28.0,21.4,29.98,NNW,337,0.0,0.0,76,0.00,,,0.00,WUHU21636XXSP,2014-03-07 13:52:00,
2014-03-07 08:57:00,28.4,21.7,29.98,NNW,337,0.0,0.0,76,0.00,,,0.00,WUHU21636XXSP,2014-03-07 13:57:00,
2014-03-07 09:02:00,28.8,22.1,29.98,NNW,337,0.0,0.0,76,0.00,,,0.00,WUHU21636XXSP,2014-03-07 14:02:00,
2014-03-07 09:07:00,29.1,22.1,29.98,NE,45,0.0,0.0,75,0.00,,,0.00,WUHU21636XXSP,2014-03-07 14:07:00,
2014-03-07 09:12:00,29.1,22.1,29.97,NE,45,0.0,0.0,75,0.00,,,0.00,WUHU21636XXSP,2014-03-07 14:12:00,
2014-03-07 09:17:00,29.5,22.5,29.97,NE,45,0.0,0.0,75,0.00,,,0.00,WUHU21636XXSP,2014-03-07 14:17:00,
2014-03-07 09:22:00,29.8,22.8,29.97,NE,45,0.0,0.0,75,0.00,,,0.00,WUHU21636XXSP,2014-03-07 14:22:00,
2014-03-07 09:27:00,30.0,23.0,29.97,ENE,67,0.0,0.0,74,0.00,,,0.00,WUHU21636XXSP,2014-03-07 14:27:00,
2014-03-07 09:32:00,30.0,23.0,29.97,North,0,0.0,0.0,75,0.00,,,0.00,WUHU21636XXSP,2014-03-07 14:32:00,
2014-03-07 09:37:00,30.4,23.4,29.96,NNE,22,0.0,0.0,75,0.00,,,0.00,WUHU21636XXSP,2014-03-07 14:37:00,
2014-03-07 09:42:00,30.7,23.7,29.97,NNE,22,0.0,0.0,75,0.00,,,0.00,WUHU21636XXSP,2014-03-07 14:42:00,
2014-03-07 09:47:00,30.9,23.9,29.97,NE,45,0.0,0.0,75,0.00,,,0.00,WUHU21636XXSP,2014-03-07 14:47:00,
2014-03-07 09:52:00,31.5,24.4,29.97,NE,45,0.0,0.0,75,0.00,,,0.00,WUHU21636XXSP,2014-03-07 14:52:00,
2014-03-07 09:57:00,31.3,23.9,29.96,North,0,0.0,0.0,74,0.00,,,0.00,WUHU21636XXSP,2014-03-07 14:57:00,
2014-03-07 10:02:00,31.5,24.4,29.96,NNE,22,0.0,0.0,75,0.00,,,0.00,WUHU21636XXSP,2014-03-07 15:02:00,
2014-03-07 10:07:00,32.0,24.6,29.97,NE,45,0.0,0.0,74,0.00,,,0.00,WUHU21636XXSP,2014-03-07 15:07:00,
2014-03-07 10:12:00,32.5,25.0,29.97,ESE,112,0.0,0.0,74,0.00,,,0.00,WUHU21636XXSP,2014-03-07 15:12:00,
2014-03-07 10:17:00,33.1,25.0,29.97,NE,45,0.0,0.0,72,0.00,,,0.00,WUHU21636XXSP,2014-03-07 15:17:00,
2014-03-07 10:22:00,33.1,25.0,29.96,North,0,0.0,0.0,72,0.00,,,0.00,WUHU21636XXSP,2014-03-07 15:22:00,
2014-03-07 10:27:00,33.4,25.2,29.96,NE,45,3.8,3.8,72,0.00,,,0.00,WUHU21636XXSP,2014-03-07 15:27:00,
2014-03-07 10:32:00,33.6,25.3,29.96,East,90,0.0,3.8,72,0.00,,,0.00,WUHU21636XXSP,2014-03-07 15:32:00,
2014-03-07 10:37:00,34.5,26.2,29.96,NW,315,0.0,0.0,72,0.00,,,0.00,WUHU21636XXSP,2014-03-07 15:37:00,
2014-03-07 10:42:00,34.9,26.2,29.96,NW,315,0.0,0.0,71,0.00,,,0.00,WUHU21636XXSP,2014-03-07 15:42:00,
2014-03-07 10:47:00,35.2,26.4,29.95,ENE,67,0.0,0.0,70,0.00,,,0.00,WUHU21636XXSP,2014-03-07 15:47:00,
2014-03-07 10:52:00,35.2,26.1,29.96,NNW,337,0.0,6.9,69,0.00,,,0.00,WUHU21636XXSP,2014-03-07 15:52:00,
2014-03-07 10:57:00,35.2,26.1,29.95,NNE,22,0.0,6.9,69,0.00,,,0.00,WUHU21636XXSP,2014-03-07 15:57:00,
2014-03-07 11:02:00,35.8,27.0,29.94,NW,315,0.0,0.0,70,0.00,,,0.00,WUHU21636XXSP,2014-03-07 16:02:00,
2014-03-07 11:07:00,35.6,26.4,29.95,NNE,22,2.6,2.6,69,0.00,,,0.00,WUHU21636XXSP,2014-03-07 16:07:00,
2014-03-07 11:12:00,35.6,26.8,29.94,North,0,0.2,2.6,70,0.00,,,0.00,WUHU21636XXSP,2014-03-07 16:12:00,
2014-03-07 11:17:00,35.4,26.6,29.93,East,90,0.0,2.6,70,0.00,,,0.00,WUHU21636XXSP,2014-03-07 16:17:00,
2014-03-07 11:22:00,35.8,27.0,29.94,NNE,22,0.0,0.0,70,0.00,,,0.00,WUHU21636XXSP,2014-03-07 16:22:00,
2014-03-07 11:27:00,35.6,26.8,29.94,NW,315,0.0,0.0,70,0.00,,,0.00,WUHU21636XXSP,2014-03-07 16:27:00,
2014-03-07 11:32:00,36.0,27.1,29.93,NW,315,0.0,0.0,70,0.00,,,0.00,WUHU21636XXSP,2014-03-07 16:32:00,
2014-03-07 11:37:00,35.4,26.6,29.94,ENE,67,0.0,1.5,70,0.00,,,0.00,WUHU21636XXSP,2014-03-07 16:37:00,
2014-03-07 11:42:00,36.1,27.3,29.93,SE,135,0.0,1.5,70,0.00,,,0.00,WUHU21636XXSP,2014-03-07 16:42:00,
2014-03-07 11:47:00,36.3,27.5,29.93,ENE,67,0.0,0.0,70,0.00,,,0.00,WUHU21636XXSP,2014-03-07 16:47:00,
2014-03-07 11:52:00,36.7,27.3,29.93,ENE,67,0.8,0.8,69,0.00,,,0.00,WUHU21636XXSP,2014-03-07 16:52:00,
2014-03-07 11:57:00,37.2,27.5,29.93,NNW,337,0.0,0.8,68,0.00,,,0.00,WUHU21636XXSP,2014-03-07 16:57:00,
2014-03-07 12:02:00,37.6,27.9,29.93,NNW,337,0.0,0.0,68,0.00,,,0.00,WUHU21636XXSP,2014-03-07 17:02:00,
2014-03-07 12:07:00,37.9,28.6,29.92,NE,45,0.0,0.0,69,0.00,,,0.00,WUHU21636XXSP,2014-03-07 17:07:00,
2014-03-07 12:12:00,38.1,28.4,29.92,NE,45,2.0,2.0,68,0.00,,,0.00,WUHU21636XXSP,2014-03-07 17:12:00,
2014-03-07 12:17:00,37.9,28.2,29.91,NE,45,0.0,2.0,68,0.00,,,0.00,WUHU21636XXSP,2014-03-07 17:17:00,
2014-03-07 12:22:00,38.3,28.6,29.91,NE,45,0.0,2.0,68,0.00,,,0.00,WUHU21636XXSP,2014-03-07 17:22:00,
2014-03-07 12:27:00,38.1,28.0,29.91,NW,315,2.9,2.9,67,0.00,,,0.00,WUHU21636XXSP,2014-03-07 17:27:00,
2014-03-07 12:32:00,37.9,28.2,29.91,NNW,337,0.0,2.9,68,0.00,,,0.00,WUHU21636XXSP,2014-03-07 17:32:00,
2014-03-07 12:37:00,37.2,27.5,29.90,NE,45,0.0,2.9,69,0.00,,,0.00,WUHU21636XXSP,2014-03-07 17:37:00,
2014-03-07 12:42:00,37.6,28.2,29.89,North,0,0.0,0.0,68,0.00,,,0.00,WUHU21636XXSP,2014-03-07 17:42:00,
2014-03-07 12:47:00,37.2,27.9,29.89,NNW,337,0.0,0.0,69,0.00,,,0.00,WUHU21636XXSP,2014-03-07 17:47:00,
2014-03-07 12:52:00,38.1,28.4,29.88,ENE,67,0.4,0.4,68,0.00,,,0.00,WUHU21636XXSP,2014-03-07 17:52:00,
2014-03-07 12:57:00,38.1,28.4,29.88,ENE,67,0.0,0.4,68,0.00,,,0.00,WUHU21636XXSP,2014-03-07 17:57:00,
2014-03-07 13:02:00,38.5,28.8,29.87,NNE,22,0.0,0.4,68,0.00,,,0.00,WUHU21636XXSP,2014-03-07 18:02:00,
2014-03-07 13:07:00,39.4,28.8,29.87,NE,45,0.0,0.0,66,0.00,,,0.00,WUHU21636XXSP,2014-03-07 18:07:00,
2014-03-07 13:12:00,39.0,28.4,29.87,North,0,0.0,0.0,66,0.00,,,0.00,WUHU21636XXSP,2014-03-07 18:12:00,
2014-03-07 13:17:00,39.7,29.5,29.87,ENE,67,0.0,0.0,67,0.00,,,0.00,WUHU21636XXSP,2014-03-07 18:17:00,
2014-03-07 13:22:00,40.3,29.3,29.87,NE,45,0.0,0.0,64,0.00,,,0.00,WUHU21636XXSP,2014-03-07 18:22:00,
2014-03-07 13:27:00,39.9,28.9,29.87,ENE,67,0.0,0.0,65,0.00,,,0.00,WUHU21636XXSP,2014-03-07 18:27:00,
2014-03-07 13:32:00,39.7,28.8,29.86,WSW,247,2.2,2.2,65,0.00,,,0.00,WUHU21636XXSP,2014-03-07 18:32:00,
2014-03-07 13:37:00,40.1,29.5,29.86,NE,45,0.0,2.2,66,0.00,,,0.00,WUHU21636XXSP,2014-03-07 18:37:00,
2014-03-07 13:42:00,40.6,29.7,29.86,ENE,64,4.5,6.7,65,0.00,,,0.00,WUHU21636XXSP,2014-03-07 18:42:00,
2014-03-07 13:47:00,40.6,29.7,29.85,NNE,22,0.0,6.7,64,0.00,,,0.00,WUHU21636XXSP,2014-03-07 18:47:00,
2014-03-07 13:52:00,40.6,29.7,29.85,NNE,22,5.3,5.3,65,0.00,,,0.00,WUHU21636XXSP,2014-03-07 18:52:00,
2014-03-07 13:57:00,40.3,29.3,29.85,NW,315,0.0,5.3,65,0.00,,,0.00,WUHU21636XXSP,2014-03-07 18:57:00,
2014-03-07 14:02:00,40.1,29.1,29.84,WNW,292,0.0,5.3,65,0.00,,,0.00,WUHU21636XXSP,2014-03-07 19:02:00,
2014-03-07 14:07:00,39.7,28.8,29.84,ESE,112,0.0,0.0,65,0.00,,,0.00,WUHU21636XXSP,2014-03-07 19:07:00,
2014-03-07 14:12:00,39.6,28.9,29.84,NW,315,0.0,0.0,66,0.00,,,0.00,WUHU21636XXSP,2014-03-07 19:12:00,
2014-03-07 14:17:00,39.6,29.3,29.84,NW,315,0.0,0.0,67,0.00,,,0.00,WUHU21636XXSP,2014-03-07 19:17:00,
2014-03-07 14:22:00,39.7,29.1,29.84,NW,315,0.0,0.0,66,0.00,,,0.00,WUHU21636XXSP,2014-03-07 19:22:00,
2014-03-07 14:27:00,39.7,29.1,29.84,ENE,67,0.0,0.0,66,0.00,,,0.00,WUHU21636XXSP,2014-03-07 19:27:00,
2014-03-07 14:32:00,39.9,29.3,29.84,ENE,67,0.0,0.0,66,0.00,,,0.00,WUHU21636XXSP,2014-03-07 19:32:00,
2014-03-07 14:38:00,40.3,29.7,29.83,ENE,67,0.0,0.0,65,0.00,,,0.00,WUHU21636XXSP,2014-03-07 19:38:00,
2014-03-07 14:43:00,40.3,29.7,29.83,NE,45,0.0,0.0,66,0.00,,,0.00,WUHU21636XXSP,2014-03-07 19:43:00,
2014-03-07 14:48:00,40.6,29.7,29.83,SE,135,0.0,0.0,65,0.00,,,0.00,WUHU21636XXSP,2014-03-07 19:48:00,
2014-03-07 14:53:00,40.3,29.3,29.82,WSW,247,0.0,0.0,65,0.00,,,0.00,WUHU21636XXSP,2014-03-07 19:53:00,
2014-03-07 14:58:00,41.4,30.4,29.82,WSW,247,0.0,0.0,65,0.00,,,0.00,WUHU21636XXSP,2014-03-07 19:58:00,
2014-03-07 15:03:00,41.2,29.8,29.82,NNW,337,0.0,0.0,64,0.00,,,0.00,WUHU21636XXSP,2014-03-07 20:03:00,
2014-03-07 15:08:00,41.2,29.8,29.81,WSW,247,0.0,0.0,64,0.00,,,0.00,WUHU21636XXSP,2014-03-07 20:08:00,
2014-03-07 15:13:00,41.9,30.6,29.81,WSW,247,0.0,0.0,64,0.00,,,0.00,WUHU21636XXSP,2014-03-07 20:13:00,
2014-03-07 15:18:00,42.4,30.6,29.81,WSW,247,0.0,0.0,63,0.00,,,0.00,WUHU21636XXSP,2014-03-07 20:18:00,
2014-03-07 15:23:00,42.6,30.7,29.81,WSW,247,0.0,0.0,63,0.00,,,0.00,WUHU21636XXSP,2014-03-07 20:23:00,
2014-03-07 15:28:00,42.4,30.2,29.80,WSW,247,0.0,0.0,62,0.00,,,0.00,WUHU21636XXSP,2014-03-07 20:28:00,
2014-03-07 15:33:00,41.7,29.5,29.80,NE,45,3.1,3.1,62,0.00,,,0.00,WUHU21636XXSP,2014-03-07 20:33:00,
2014-03-07 15:38:00,41.2,29.8,29.80,North,0,0.0,3.1,64,0.00,,,0.00,WUHU21636XXSP,2014-03-07 20:38:00,
2014-03-07 15:43:00,40.6,29.3,29.80,North,0,0.0,0.0,64,0.00,,,0.00,WUHU21636XXSP,2014-03-07 20:43:00,
2014-03-07 15:48:00,39.9,28.9,29.80,North,0,0.0,0.0,65,0.00,,,0.00,WUHU21636XXSP,2014-03-07 20:48:00,
2014-03-07 15:53:00,39.9,28.9,29.79,North,0,0.0,0.0,66,0.00,,,0.00,WUHU21636XXSP,2014-03-07 20:53:00,
2014-03-07 15:58:00,39.9,28.9,29.79,North,0,0.0,0.0,66,0.00,,,0.00,WUHU21636XXSP,2014-03-07 20:58:00,
2014-03-07 16:03:00,39.2,28.9,29.79,NNE,22,1.3,1.3,67,0.00,,,0.00,WUHU21636XXSP,2014-03-07 21:03:00,
2014-03-07 16:08:00,39.4,29.1,29.79,NNE,22,0.0,1.3,67,0.00,,,0.00,WUHU21636XXSP,2014-03-07 21:08:00,
2014-03-07 16:13:00,39.2,28.9,29.78,North,0,0.0,0.0,67,0.00,,,0.00,WUHU21636XXSP,2014-03-07 21:13:00,
2014-03-07 16:18:00,39.2,28.9,29.78,North,0,0.0,0.0,67,0.00,,,0.00,WUHU21636XXSP,2014-03-07 21:18:00,
2014-03-07 16:23:00,39.0,29.1,29.78,North,0,0.0,0.0,68,0.00,,,0.00,WUHU21636XXSP,2014-03-07 21:23:00,
2014-03-07 16:28:00,39.0,29.1,29.78,North,0,0.0,0.0,68,0.00,,,0.00,WUHU21636XXSP,2014-03-07 21:28:00,
2014-03-07 16:33:00,39.0,29.1,29.78,North,0,0.0,0.0,68,0.00,,,0.00,WUHU21636XXSP,2014-03-07 21:33:00,
2014-03-07 16:38:00,38.8,29.1,29.78,North,0,0.0,0.0,68,0.00,,,0.00,WUHU21636XXSP,2014-03-07 21:38:00,
2014-03-07 16:43:00,38.8,29.1,29.78,North,0,0.0,0.0,69,0.00,,,0.00,WUHU21636XXSP,2014-03-07 21:43:00,
2014-03-07 16:48:00,38.5,29.1,29.78,North,0,0.0,0.0,69,0.00,,,0.00,WUHU21636XXSP,2014-03-07 21:48:00,
2014-03-07 16:53:00,38.5,29.1,29.78,North,0,0.0,0.0,69,0.00,,,0.00,WUHU21636XXSP,2014-03-07 21:53:00,
2014-03-07 16:58:00,38.5,29.1,29.78,North,0,0.0,0.0,69,0.00,,,0.00,WUHU21636XXSP,2014-03-07 21:58:00,
2014-03-07 17:03:00,38.5,29.1,29.77,East,90,0.0,0.0,69,0.00,,,0.00,WUHU21636XXSP,2014-03-07 22:03:00,
2014-03-07 17:08:00,38.5,29.1,29.77,NNE,22,0.0,0.0,69,0.00,,,0.00,WUHU21636XXSP,2014-03-07 22:08:00,
2014-03-07 17:13:00,38.1,28.8,29.77,NNE,22,0.0,0.0,69,0.00,,,0.00,WUHU21636XXSP,2014-03-07 22:13:00,
2014-03-07 17:18:00,37.9,28.6,29.76,NNE,22,0.0,0.0,69,0.00,,,0.00,WUHU21636XXSP,2014-03-07 22:18:00,
2014-03-07 17:23:00,37.6,28.6,29.76,NNE,22,0.0,0.0,70,0.00,,,0.00,WUHU21636XXSP,2014-03-07 22:23:00,
2014-03-07 17:28:00,37.2,28.4,29.76,SE,135,0.0,0.0,70,0.00,,,0.00,WUHU21636XXSP,2014-03-07 22:28:00,
2014-03-07 17:33:00,36.7,27.9,29.76,NNE,22,0.0,0.0,70,0.00,,,0.00,WUHU21636XXSP,2014-03-07 22:33:00,
2014-03-07 17:38:00,36.7,27.9,29.76,NNE,22,0.0,0.0,71,0.00,,,0.00,WUHU21636XXSP,2014-03-07 22:38:00,
2014-03-07 17:43:00,36.5,27.9,29.76,NNE,22,0.0,0.0,71,0.00,,,0.00,WUHU21636XXSP,2014-03-07 22:43:00,
2014-03-07 17:48:00,36.5,27.9,29.75,NE,45,0.0,0.0,72,0.00,,,0.00,WUHU21636XXSP,2014-03-07 22:48:00,
2014-03-07 17:53:00,36.5,27.9,29.75,ESE,112,0.0,0.0,72,0.00,,,0.00,WUHU21636XXSP,2014-03-07 22:53:00,
2014-03-07 17:58:00,36.1,27.9,29.75,NNE,22,0.0,0.0,72,0.00,,,0.00,WUHU21636XXSP,2014-03-07 22:58:00,
2014-03-07 18:03:00,36.0,27.7,29.75,NNE,22,0.0,0.0,72,0.00,,,0.00,WUHU21636XXSP,2014-03-07 23:03:00,
2014-03-07 18:08:00,35.8,27.5,29.75,NE,45,0.0,0.0,72,0.00,,,0.00,WUHU21636XXSP,2014-03-07 23:08:00,
2014-03-07 18:13:00,35.4,27.5,29.74,NE,45,0.0,0.0,73,0.00,,,0.00,WUHU21636XXSP,2014-03-07 23:13:00,
2014-03-07 18:18:00,35.2,27.3,29.74,ENE,67,0.0,0.0,73,0.00,,,0.00,WUHU21636XXSP,2014-03-07 23:18:00,
2014-03-07 18:23:00,34.9,27.0,29.74,NNE,22,0.0,0.0,73,0.00,,,0.00,WUHU21636XXSP,2014-03-07 23:23:00,
2014-03-07 18:28:00,34.7,26.8,29.75,NNE,22,0.0,0.0,73,0.00,,,0.00,WUHU21636XXSP,2014-03-07 23:28:00,
2014-03-07 18:33:00,34.5,27.0,29.75,NNE,22,0.0,0.0,74,0.00,,,0.00,WUHU21636XXSP,2014-03-07 23:33:00,
2014-03-07 18:38:00,34.5,27.0,29.74,NNE,22,0.0,0.0,75,0.00,,,0.00,WUHU21636XXSP,2014-03-07 23:38:00,
2014-03-07 18:43:00,34.3,27.1,29.74,NNE,22,0.0,0.0,75,0.00,,,0.00,WUHU21636XXSP,2014-03-07 23:43:00,
2014-03-07 18:48:00,34.3,27.1,29.74,NNE,22,0.0,0.0,76,0.00,,,0.00,WUHU21636XXSP,2014-03-07 23:48:00,
2014-03-07 18:53:00,34.5,27.5,29.73,NNE,22,0.0,0.0,76,0.00,,,0.00,WUHU21636XXSP,2014-03-07 23:53:00,
2014-03-07 18:58:00,34.3,27.3,29.74,NNE,22,0.0,0.0,76,0.00,,,0.00,WUHU21636XXSP,2014-03-07 23:58:00,
2014-03-07 19:03:00,34.3,27.3,29.73,North,0,0.0,0.0,76,0.00,,,0.00,WUHU21636XXSP,2014-03-08 00:03:00,
2014-03-07 19:08:00,34.3,27.3,29.73,North,0,0.0,0.0,76,0.00,,,0.00,WUHU21636XXSP,2014-03-08 00:08:00,
2014-03-07 19:13:00,34.3,27.7,29.73,North,0,0.0,0.0,77,0.00,,,0.00,WUHU21636XXSP,2014-03-08 00:13:00,
2014-03-07 19:18:00,34.5,27.5,29.73,North,0,0.0,0.0,76,0.00,,,0.00,WUHU21636XXSP,2014-03-08 00:18:00,
2014-03-07 19:23:00,34.5,27.9,29.73,North,0,0.0,0.0,76,0.00,,,0.00,WUHU21636XXSP,2014-03-08 00:23:00,
2014-03-07 19:28:00,34.5,27.9,29.73,North,0,0.0,0.0,77,0.00,,,0.00,WUHU21636XXSP,2014-03-08 00:28:00,
2014-03-07 19:33:00,34.5,27.9,29.73,North,0,0.0,0.0,76,0.00,,,0.00,WUHU21636XXSP,2014-03-08 00:33:00,
2014-03-07 19:38:00,34.5,27.9,29.73,North,0,0.0,0.0,76,0.00,,,0.00,WUHU21636XXSP,2014-03-08 00:38:00,
2014-03-07 19:43:00,34.5,27.9,29.73,North,0,0.0,0.0,76,0.00,,,0.00,WUHU21636XXSP,2014-03-08 00:43:00,
2014-03-07 19:48:00,34.5,27.9,29.73,North,0,0.0,0.0,77,0.00,,,0.00,WUHU21636XXSP,2014-03-08 00:48:00,
2014-03-07 19:53:00,34.5,27.9,29.73,North,0,0.0,0.0,77,0.00,,,0.00,WUHU21636XXSP,2014-03-08 00:53:00,
2014-03-07 19:58:00,34.5,27.9,29.73,North,0,0.0,0.0,77,0.00,,,0.00,WUHU21636XXSP,2014-03-08 00:58:00,
2014-03-07 20:03:00,34.5,27.9,29.73,North,0,0.0,0.0,77,0.00,,,0.00,WUHU21636XXSP,2014-03-08 01:03:00,
2014-03-07 20:08:00,34.5,27.9,29.73,North,0,0.0,0.0,77,0.00,,,0.00,WUHU21636XXSP,2014-03-08 01:08:00,
2014-03-07 20:13:00,34.5,27.9,29.73,North,0,0.0,0.0,77,0.00,,,0.00,WUHU21636XXSP,2014-03-08 01:13:00,
2014-03-07 20:18:00,34.5,27.9,29.73,North,0,0.0,0.0,77,0.00,,,0.00,WUHU21636XXSP,2014-03-08 01:18:00,
2014-03-07 20:23:00,34.7,27.7,29.72,NNE,22,0.0,0.0,76,0.00,,,0.00,WUHU21636XXSP,2014-03-08 01:23:00,
2014-03-07 20:28:00,34.9,27.9,29.72,NE,45,0.0,0.0,76,0.00,,,0.00,WUHU21636XXSP,2014-03-08 01:28:00,
2014-03-07 20:33:00,34.9,27.9,29.72,NNE,22,0.0,0.0,76,0.00,,,0.00,WUHU21636XXSP,2014-03-08 01:33:00,
2014-03-07 20:38:00,34.9,27.9,29.73,NNE,22,0.0,0.0,75,0.00,,,0.00,WUHU21636XXSP,2014-03-08 01:38:00,
2014-03-07 20:43:00,34.9,27.9,29.73,NE,45,0.0,0.0,75,0.00,,,0.00,WUHU21636XXSP,2014-03-08 01:43:00,
2014-03-07 20:48:00,34.9,27.9,29.72,NNE,22,0.0,0.0,75,0.00,,,0.00,WUHU21636XXSP,2014-03-08 01:48:00,
2014-03-07 20:53:00,35.1,27.9,29.72,NNE,22,0.0,0.0,75,0.00,,,0.00,WUHU21636XXSP,2014-03-08 01:53:00,
2014-03-07 20:58:00,35.2,28.0,29.72,NE,45,0.0,0.0,75,0.00,,,0.00,WUHU21636XXSP,2014-03-08 01:58:00,
2014-03-07 21:03:00,35.2,28.0,29.72,NE,45,0.0,0.0,74,0.00,,,0.00,WUHU21636XXSP,2014-03-08 02:03:00,
2014-03-07 21:08:00,35.2,28.0,29.72,NE,45,0.0,0.0,74,0.00,,,0.00,WUHU21636XXSP,2014-03-08 02:08:00,
2014-03-07 21:13:00,35.1,27.5,29.72,NE,45,0.0,0.0,74,0.00,,,0.00,WUHU21636XXSP,2014-03-08 02:13:00,
2014-03-07 21:18:00,35.1,27.5,29.71,NE,45,0.0,0.0,74,0.00,,,0.00,WUHU21636XXSP,2014-03-08 02:18:00,
2014-03-07 21:23:00,35.1,27.5,29.71,NE,45,0.0,0.0,74,0.00,,,0.00,WUHU21636XXSP,2014-03-08 02:23:00,
2014-03-07 21:28:00,35.2,27.3,29.71,ENE,67,0.0,0.0,73,0.00,,,0.00,WUHU21636XXSP,2014-03-08 02:28:00,
2014-03-07 21:33:00,35.1,27.1,29.71,ENE,67,0.0,0.0,73,0.00,,,0.00,WUHU21636XXSP,2014-03-08 02:33:00,
2014-03-07 21:38:00,35.1,27.1,29.71,ENE,67,0.0,0.0,73,0.00,,,0.00,WUHU21636XXSP,2014-03-08 02:38:00,
2014-03-07 21:43:00,34.9,27.3,29.70,NE,45,0.0,0.0,73,0.00,,,0.00,WUHU21636XXSP,2014-03-08 02:43:00,
2014-03-07 21:48:00,34.9,27.3,29.70,NE,45,0.0,0.0,73,0.00,,,0.00,WUHU21636XXSP,2014-03-08 02:48:00,
2014-03-07 21:53:00,35.1,27.1,29.70,NE,45,0.0,0.0,73,0.00,,,0.00,WUHU21636XXSP,2014-03-08 02:53:00,
2014-03-07 21:58:00,35.1,27.1,29.70,NE,45,0.0,0.0,73,0.00,,,0.00,WUHU21636XXSP,2014-03-08 02:58:00,
2014-03-07 22:03:00,34.9,27.0,29.70,NE,45,0.0,0.0,73,0.00,,,0.00,WUHU21636XXSP,2014-03-08 03:03:00,
2014-03-07 22:08:00,34.9,27.0,29.70,NE,45,0.0,0.0,73,0.00,,,0.00,WUHU21636XXSP,2014-03-08 03:08:00,
2014-03-07 22:13:00,34.9,27.0,29.69,NE,45,0.0,0.0,73,0.00,,,0.00,WUHU21636XXSP,2014-03-08 03:13:00,
2014-03-07 22:18:00,34.7,26.8,29.69,NE,45,0.0,0.0,73,0.00,,,0.00,WUHU21636XXSP,2014-03-08 03:18:00,
2014-03-07 22:23:00,34.9,27.3,29.69,NE,45,0.0,0.0,73,0.00,,,0.00,WUHU21636XXSP,2014-03-08 03:23:00,
2014-03-07 22:28:00,34.7,26.8,29.69,NE,45,0.0,0.0,73,0.00,,,0.00,WUHU21636XXSP,2014-03-08 03:28:00,
2014-03-07 22:33:00,34.7,26.8,29.68,NE,45,0.0,0.0,74,0.00,,,0.00,WUHU21636XXSP,2014-03-08 03:33:00,
2014-03-07 22:38:00,34.7,26.8,29.68,NE,45,0.0,0.0,74,0.00,,,0.00,WUHU21636XXSP,2014-03-08 03:38:00,
2014-03-07 22:43:00,34.5,27.0,29.68,NE,45,0.0,0.0,74,0.00,,,0.00,WUHU21636XXSP,2014-03-08 03:43:00,
2014-03-07 22:48:00,34.5,27.0,29.68,NE,45,0.0,0.0,74,0.00,,,0.00,WUHU21636XXSP,2014-03-08 03:48:00,
2014-03-07 22:53:00,34.5,27.0,29.68,NE,45,0.0,0.0,74,0.00,,,0.00,WUHU21636XXSP,2014-03-08 03:53:00,
2014-03-07 22:58:00,34.5,27.0,29.67,NE,45,0.0,0.0,74,0.00,,,0.00,WUHU21636XXSP,2014-03-08 03:58:00,
2014-03-07 23:03:00,34.5,27.0,29.67,NE,45,0.0,0.0,74,0.00,,,0.00,WUHU21636XXSP,2014-03-08 04:03:00,
2014-03-07 23:08:00,34.5,27.0,29.67,NE,45,0.0,0.0,74,0.00,,,0.00,WUHU21636XXSP,2014-03-08 04:08:00,
2014-03-07 23:13:00,34.5,27.0,29.67,NE,45,0.0,0.0,74,0.00,,,0.00,WUHU21636XXSP,2014-03-08 04:13:00,
2014-03-07 23:18:00,34.5,27.0,29.66,NE,45,0.0,0.0,74,0.00,,,0.00,WUHU21636XXSP,2014-03-08 04:18:00,
2014-03-07 23:23:00,34.5,27.0,29.66,NE,45,0.0,0.0,74,0.00,,,0.00,WUHU21636XXSP,2014-03-08 04:23:00,
2014-03-07 23:28:00,34.5,27.0,29.66,NE,45,0.0,0.0,74,0.00,,,0.00,WUHU21636XXSP,2014-03-08 04:28:00,
2014-03-07 23:33:00,34.5,27.0,29.66,NE,45,0.0,0.0,74,0.00,,,0.00,WUHU21636XXSP,2014-03-08 04:33:00,
2014-03-07 23:38:00,34.5,27.0,29.66,NE,45,0.0,0.0,75,0.00,,,0.00,WUHU21636XXSP,2014-03-08 04:38:00,
2014-03-07 23:43:00,34.5,27.0,29.65,NE,45,0.0,0.0,75,0.00,,,0.00,WUHU21636XXSP,2014-03-08 04:43:00,
2014-03-07 23:48:00,34.5,27.0,29.65,NE,45,0.0,0.0,75,0.00,,,0.00,WUHU21636XXSP,2014-03-08 04:48:00,
2014-03-07 23:53:00,34.5,27.0,29.65,NE,45,0.0,0.0,75,0.00,,,0.00,WUHU21636XXSP,2014-03-08 04:53:00,
2014-03-07 23:58:00,34.5,27.0,29.65,NE,45,0.0,0.0,76,0.00,,,0.00,WUHU21636XXSP,2014-03-08 04:58:00,